Weather History for Breckenridge, TX

Change the Weather History Date:

Sunday, April 17, 2011

  Actual Average (KABI) Record (KABI)
Temperature  
Mean Temperature 74 °F 65 °F  
Max Temperature 89 °F 78 °F 98 °F (2006)
Min Temperature 59 °F 52 °F 30 °F (1947)
Degree Days  
Heating Degree Days 0 3  
Month to date heating degree days 82  
Since 1 July heating degree days 2513  
Cooling Degree Days 9 3  
Month to date cooling degree days 43  
Year to date cooling degree days 77  
Growing Degree Days 24 (Base 50)    
Moisture  
Dew Point 37 °F    
Average Humidity 27    
Maximum Humidity 39    
Minimum Humidity 18    
Precipitation  
Precipitation 0.00 in 0.05 in 1.52 in (1988)
Month to date precipitation 0.80  
Year to date precipitation 4.92  
Sea Level Pressure  
Sea Level Pressure 29.78 in    
Wind  
Wind Speed 16 mph (South)    
Max Wind Speed 30 mph    
Max Gust Speed 40 mph    
Visibility 10 miles    
Events      
T = Trace of Precipitation, MM = Missing Value Source: NWS Daily Summary

Daily Weather History Graph

Daily Weather History Graph

Search for Another Location

Airport:

Trip Planner

Search our weather history database for the weather conditions in past years. The results will help you decide how hot, cold, wet, or windy it might be!

Date:

Astronomy

Apr. 17, 2011 Rise Set
Actual Time 7:03 AM CDT 8:06 PM CDT
Civil Twilight 6:38 AM CDT 8:32 PM CDT
Nautical Twilight 6:08 AM CDT 9:02 PM CDT
Astronomical Twilight 5:37 AM CDT 9:33 PM CDT
Moon 8:03 PM CDT (4/17) 6:22 AM CDT (4/17)
Length of Visible Light 13h 53m
Length of Day
13h 02m
Full, 100% of the Moon is Illuminated
Apr 17
Full
Apr 17
Full
Apr 24
Last Quarter
May 3
New
May 10
First Quarter

Hourly Weather History & Observations

Time (CDT) Temp. Heat Index Dew Point Humidity Pressure Visibility Wind Dir Wind Speed Gust Speed Precip Events Conditions
12:15 AM 60.8 °F - 28.4 °F 29% 29.96 in 10.0 mi SSE 12.7 mph - N/A   Clear
12:35 AM 60.8 °F - 28.4 °F 29% 29.96 in 10.0 mi SSE 11.5 mph - N/A   Clear
1:15 AM 60.8 °F - 28.4 °F 29% 29.95 in 10.0 mi SSE 13.8 mph 18.4 mph N/A   Clear
1:35 AM 59.0 °F - 28.4 °F 31% 29.95 in 10.0 mi SSE 13.8 mph - N/A   Clear
1:55 AM 59.0 °F - 28.4 °F 31% 29.94 in 10.0 mi SSE 15.0 mph 20.7 mph N/A   Clear
3:15 AM 60.8 °F - 28.4 °F 29% 29.91 in 10.0 mi SSE 11.5 mph 17.3 mph N/A   Clear
3:35 AM 60.8 °F - 28.4 °F 29% 29.91 in 10.0 mi SSE 11.5 mph 20.7 mph N/A   Clear
3:55 AM 59.0 °F - 28.4 °F 31% 29.90 in 10.0 mi SSE 12.7 mph 20.7 mph N/A   Clear
4:15 AM 59.0 °F - 28.4 °F 31% 29.90 in 10.0 mi South 11.5 mph - N/A   Clear
4:35 AM 59.0 °F - 28.4 °F 31% 29.89 in 10.0 mi South 12.7 mph 19.6 mph N/A   Clear
4:55 AM 59.0 °F - 28.4 °F 31% 29.89 in 10.0 mi South 12.7 mph 17.3 mph N/A   Clear
5:15 AM 59.0 °F - 28.4 °F 31% 29.89 in 10.0 mi South 12.7 mph 18.4 mph N/A   Clear
6:15 AM 59.0 °F - 28.4 °F 31% 29.89 in 10.0 mi South 9.2 mph - N/A   Clear
6:55 AM 59.0 °F - 26.6 °F 29% 29.89 in 10.0 mi South 8.1 mph 17.3 mph N/A   Clear
7:15 AM 59.0 °F - 26.6 °F 29% 29.89 in 10.0 mi South 8.1 mph 16.1 mph N/A   Clear
7:35 AM 60.8 °F - 26.6 °F 27% 29.90 in 10.0 mi South 12.7 mph 19.6 mph N/A   Clear
8:15 AM 62.6 °F - 26.6 °F 26% 29.89 in 10.0 mi South 11.5 mph 17.3 mph N/A   Clear
8:35 AM 62.6 °F - 26.6 °F 26% 29.89 in 10.0 mi South 18.4 mph 23.0 mph N/A   Clear
8:55 AM 66.2 °F - 26.6 °F 23% 29.89 in 10.0 mi South 19.6 mph 26.5 mph N/A   Clear
9:15 AM 68.0 °F - 26.6 °F 21% 29.89 in 10.0 mi SSW 19.6 mph 29.9 mph N/A   Clear
9:35 AM 69.8 °F - 26.6 °F 20% 29.88 in 10.0 mi SSW 20.7 mph 26.5 mph N/A   Clear
9:55 AM 71.6 °F - 26.6 °F 19% 29.88 in 10.0 mi SSW 21.9 mph 28.8 mph N/A   Clear
10:15 AM 71.6 °F - 26.6 °F 19% 29.88 in 10.0 mi SSW 21.9 mph 31.1 mph N/A   Clear
10:55 AM 73.4 °F - 26.6 °F 18% 29.86 in 10.0 mi South 26.5 mph 38.0 mph N/A   Clear
11:35 AM 77.0 °F - 32.0 °F 19% 29.85 in 10.0 mi SSW 29.9 mph 40.3 mph N/A   Clear
11:55 AM 78.8 °F - 32.0 °F 18% 29.84 in 10.0 mi SSW 26.5 mph 36.8 mph N/A   Clear
12:15 PM 78.8 °F - 33.8 °F 20% 29.83 in 10.0 mi SSW 25.3 mph 32.2 mph N/A   Clear
12:55 PM 80.6 °F - 35.6 °F 20% 29.81 in 10.0 mi SSW 24.2 mph 34.5 mph N/A   Clear
1:15 PM 80.6 °F - 37.4 °F 21% 29.79 in 10.0 mi SSW 21.9 mph 31.1 mph N/A   Clear
1:35 PM 82.4 °F - 37.4 °F 20% 29.78 in 10.0 mi SSW 19.6 mph 31.1 mph N/A   Clear
1:55 PM 82.4 °F - 41.0 °F 23% 29.76 in 10.0 mi SSW 20.7 mph 31.1 mph N/A   Clear
3:15 PM 87.8 °F - 44.6 °F 22% 29.71 in 10.0 mi SW 19.6 mph 33.4 mph N/A   Clear
3:35 PM 87.8 °F - 44.6 °F 22% 29.70 in 10.0 mi SSW 21.9 mph 28.8 mph N/A   Clear
3:55 PM 89.6 °F - 46.4 °F 22% 29.68 in 10.0 mi South 25.3 mph 31.1 mph N/A   Clear
4:15 PM 89.6 °F - 46.4 °F 22% 29.67 in 10.0 mi SSW 19.6 mph 28.8 mph N/A   Clear
4:55 PM 89.6 °F - 46.4 °F 22% 29.64 in 10.0 mi SSW 23.0 mph 29.9 mph N/A   Clear
5:15 PM 87.8 °F - 46.4 °F 24% 29.64 in 10.0 mi South 13.8 mph 27.6 mph N/A   Clear
5:35 PM 89.6 °F - 46.4 °F 22% 29.63 in 10.0 mi SSW 17.3 mph 26.5 mph N/A   Clear
5:55 PM 89.6 °F - 48.2 °F 24% 29.62 in 10.0 mi South 20.7 mph 29.9 mph N/A   Clear
6:15 PM 89.6 °F - 48.2 °F 24% 29.62 in 10.0 mi South 17.3 mph 28.8 mph N/A   Clear
6:35 PM 89.6 °F - 50.0 °F 26% 29.61 in 10.0 mi South 17.3 mph 25.3 mph N/A   Clear
6:55 PM 87.8 °F - 50.0 °F 27% 29.61 in 10.0 mi South 20.7 mph 27.6 mph N/A   Clear
7:15 PM 87.8 °F - 50.0 °F 27% 29.61 in 10.0 mi South 20.7 mph 26.5 mph N/A   Clear
7:55 PM 84.2 °F - 50.0 °F 30% 29.61 in 10.0 mi South 12.7 mph 21.9 mph N/A   Clear
8:15 PM 82.4 °F - 50.0 °F 32% 29.60 in 10.0 mi South 13.8 mph 25.3 mph N/A   Clear
8:35 PM 82.4 °F - 50.0 °F 32% 29.61 in 10.0 mi South 13.8 mph 23.0 mph N/A   Clear
8:55 PM 82.4 °F - 51.8 °F 35% 29.61 in 10.0 mi South 16.1 mph 19.6 mph N/A   Clear
9:15 PM 82.4 °F - 51.8 °F 35% 29.62 in 10.0 mi South 16.1 mph 23.0 mph N/A   Clear
9:35 PM 80.6 °F - 51.8 °F 37% 29.62 in 10.0 mi South 17.3 mph 26.5 mph N/A   Clear
9:55 PM 80.6 °F 80.3 °F 53.6 °F 39% 29.63 in 10.0 mi South 16.1 mph 23.0 mph N/A   Clear
10:15 PM 80.6 °F 80.3 °F 53.6 °F 39% 29.64 in 10.0 mi South 18.4 mph 24.2 mph N/A   Clear
10:35 PM 80.6 °F 80.3 °F 53.6 °F 39% 29.65 in 10.0 mi South 20.7 mph 28.8 mph N/A   Clear
10:55 PM 78.8 °F - 55.4 °F 44% 29.66 in 10.0 mi South 17.3 mph 27.6 mph N/A   Clear
11:15 PM 78.8 °F - 55.4 °F 44% 29.66 in 10.0 mi South 18.4 mph 28.8 mph N/A   Clear
11:35 PM 78.8 °F - 55.4 °F 44% 29.66 in 10.0 mi SSW 19.6 mph 26.5 mph N/A   Clear
11:55 PM 77.0 °F - 57.2 °F 50% 29.66 in 10.0 mi South 17.3 mph 26.5 mph N/A   Clear